FW3224 Weather Reports


Display with metric or nautical units.
time (UTC)temp
F
wind
direction
speed
MPH
gust
MPH
rain 1hr
in
rain 24hr
in
rain mn
in
humidity
%
barometer
mb
20260503013046 76 281 4.0 11.0 0.00 0.00 0.00 59 1020.5
20260503012546 76 271 4.0 9.0 0.00 0.00 0.00 59 1020.6
20260503012044 75 283 2.0 9.0 0.00 0.00 0.00 60 1020.6
20260503011550 75 284 2.0 11.0 0.00 0.00 0.00 60 1020.6
20260503011042 75 260 5.0 11.0 0.00 0.00 0.00 60 1020.7
20260503010540 75 45 2.0 9.0 0.00 0.00 0.00 60 1020.9
20260503010041 75 270 3.0 10.0 0.00 0.00 0.00 60 1020.9
20260503005538 75 273 3.0 10.0 0.00 0.00 0.00 62 1021.0
20260503005037 74 184 3.0 11.0 0.00 0.00 0.00 63 1020.9
20260503004537 74 306 5.0 11.0 0.00 0.00 0.00 63 1021.0
20260503004035 74 44 1.0 11.0 0.00 0.00 0.00 64 1021.2
20260503003534 74 327 3.0 10.0 0.00 0.00 0.00 64 1021.2
20260503003033 73 149 2.0 15.0 0.00 0.00 0.00 64 1021.3
20260503002532 73 294 6.0 15.0 0.00 0.00 0.00 63 1021.3
20260503002032 73 338 3.0 10.0 0.00 0.00 0.00 64 1021.5
20260503001530 73 322 3.0 8.0 0.00 0.00 0.00 65 1021.5
20260503001032 73 306 3.0 9.0 0.00 0.00 0.00 65 1021.6
20260503000530 73 337 3.0 18.0 0.00 0.00 0.00 66 1021.6
20260503000042 73 264 6.0 18.0 0.00 0.00 0.00 64 1021.6
20260502235527 73 269 3.0 12.0 0.00 0.00 0.00 66 1021.6
20260502235025 72 309 5.0 12.0 0.00 0.00 0.00 67 1021.6
20260502234524 72 268 4.0 12.0 0.00 0.00 0.00 67 1021.6
20260502234023 72 221 3.0 14.0 0.00 0.00 0.00 69 1021.6
20260502233523 72 302 3.0 14.0 0.00 0.00 0.00 69 1021.6
20260502233022 72 290 3.0 11.0 0.00 0.00 0.00 70 1021.6
20260502232520 71 317 5.0 11.0 0.00 0.00 0.00 71 1021.7
20260502232019 71 300 3.0 10.0 0.00 0.00 0.00 72 1021.8
20260502231519 71 346 5.0 11.0 0.00 0.00 0.00 72 1021.8
20260502231017 70 255 3.0 11.0 0.00 0.00 0.00 73 1021.9
20260502230516 70 329 2.0 10.0 0.00 0.00 0.00 74 1021.8
20260502230015 70 23 3.0 10.0 0.00 0.00 0.00 74 1021.8
20260502225518 70 333 3.0 10.0 0.00 0.00 0.00 75 1021.9
20260502225015 70 287 4.0 12.0 0.00 0.00 0.00 75 1022.0
20260502224517 69 321 2.0 12.0 0.00 0.00 0.00 76 1021.9
20260502224017 69 337 4.0 9.0 0.00 0.00 0.00 76 1021.9
20260502223512 69 285 2.0 8.0 0.00 0.00 0.00 76 1021.8
20260502223025 69 349 3.0 13.0 0.00 0.00 0.00 77 1022.0
20260502222512 68 263 2.0 8.0 0.00 0.00 0.00 77 1022.0
20260502222010 68 296 2.0 9.0 0.00 0.00 0.00 78 1021.9
20260502221507 68 311 2.0 8.0 0.00 0.00 0.00 78 1021.9
20260502221005 67 313 2.0 8.0 0.00 0.00 0.00 79 1021.9
20260502220504 67 282 1.0 9.0 0.00 0.00 0.00 81 1021.9
20260502220003 66 313 2.0 9.0 0.00 0.00 0.00 82 1021.9
20260502215502 65 334 1.0 8.0 0.00 0.00 0.00 83 1021.8
20260502215004 65 239 1.0 6.0 0.00 0.00 0.00 84 1021.8
20260502214503 65 315 1.0 6.0 0.00 0.00 0.00 84 1021.9
20260502214101 64 302 0.0 6.0 0.00 0.00 0.00 85 1021.9
20260502213600 64 300 1.0 6.0 0.00 0.00 0.00 85 1021.7
20260502213100 64 225 1.0 5.0 0.00 0.00 0.00 86 1021.5
20260502212601 64 300 0.0 3.0 0.00 0.00 0.00 86 1021.4
20260502212100 64 254 0.0 2.0 0.00 0.00 0.00 86 1021.5
20260502211600 64 319 0.0 5.0 0.00 0.00 0.00 86 1021.6
20260502211059 63 296 1.0 5.0 0.00 0.00 0.00 86 1021.6
20260502210558 63 281 0.0 3.0 0.00 0.00 0.00 86 1021.5
20260502210120 63 285 0.0 4.0 0.00 0.00 0.00 87 1021.5
20260502205600 63 30 0.0 4.0 0.00 0.00 0.00 87 1021.5
20260502205056 63 335 0.0 2.0 0.00 0.00 0.00 87 1021.4
20260502204555 63 309 0.0 3.0 0.00 0.00 0.00 86 1021.4
20260502204053 63 326 1.0 3.0 0.00 0.00 0.00 86 1021.4
20260502203553 63 204 0.0 5.0 0.00 0.00 0.00 87 1021.4
20260502203051 63 25 1.0 5.0 0.00 0.00 0.00 87 1021.5
20260502202551 63 235 0.0 4.0 0.00 0.00 0.00 86 1021.2
20260502202052 63 311 0.0 4.0 0.00 0.00 0.00 87 1021.3
20260502201551 63 300 1.0 5.0 0.00 0.00 0.00 87 1021.2
20260502201050 63 319 1.0 5.0 0.00 0.00 0.00 87 1021.2
20260502200550 63 317 1.0 5.0 0.00 0.00 0.00 87 1021.1
20260502200108 63 313 2.0 5.0 0.00 0.00 0.00 87 1021.1
20260502195550 63 309 0.0 4.0 0.00 0.01 0.00 87 1020.9
20260502195048 63 311 1.0 4.0 0.00 0.01 0.00 87 1021.1
20260502194548 63 5 0.0 3.0 0.00 0.01 0.00 87 1021.1
20260502194049 63 311 0.0 4.0 0.00 0.01 0.00 87 1021.1
20260502193548 63 277 0.0 4.0 0.00 0.01 0.00 87 1021.0
20260502193050 63 313 1.0 4.0 0.00 0.01 0.00 86 1021.0
20260502192547 63 58 0.0 3.0 0.00 0.01 0.00 86 1020.9
20260502192046 64 280 0.0 4.0 0.00 0.01 0.00 86 1020.9
20260502191556 64 42 0.0 4.0 0.00 0.01 0.00 85 1020.9
20260502191050 64 302 0.0 3.0 0.00 0.01 0.00 85 1021.0
20260502190546 64 59 0.0 3.0 0.00 0.01 0.00 85 1021.0
20260502190049 64 294 0.0 5.0 0.00 0.01 0.00 85 1021.0
20260502185544 64 293 1.0 5.0 0.00 0.01 0.00 85 1020.9
20260502185044 64 42 0.0 3.0 0.00 0.01 0.00 85 1020.9
20260502184545 64 339 1.0 3.0 0.00 0.01 0.00 85 1021.0
20260502184045 64 273 0.0 4.0 0.00 0.01 0.00 85 1020.9
20260502183546 64 259 0.0 4.0 0.00 0.01 0.00 85 1020.9
20260502183046 64 311 0.0 4.0 0.00 0.01 0.00 85 1020.9
20260502182543 64 296 0.0 4.0 0.00 0.01 0.00 86 1020.9
20260502182043 64 269 1.0 4.0 0.00 0.01 0.00 86 1020.9
20260502181543 64 34 0.0 3.0 0.00 0.01 0.00 86 1020.9
20260502181043 64 268 0.0 4.0 0.00 0.01 0.00 86 1020.9
20260502180543 64 268 1.0 8.0 0.00 0.01 0.00 86 1021.0
20260502164034 64 165 0.0 2.0 0.00 0.01 0.00 86 1021.3
20260502163534 64 163 0.0 3.0 0.00 0.01 0.00 86 1021.3
20260502163043 64 304 0.0 4.0 0.00 0.01 0.00 86 1021.3
20260502162532 65 162 0.0 3.0 0.00 0.01 0.00 86 1021.5
20260502162036 65 67 1.0 3.0 0.00 0.01 0.00 86 1021.5
20260502161531 65 53 0.0 3.0 0.00 0.01 0.00 86 1021.5
20260502161030 65 286 0.0 3.0 0.00 0.01 0.00 86 1021.5
20260502160530 65 26 1.0 3.0 0.00 0.01 0.00 85 1021.6
20260502152025 65 313 0.0 8.0 0.00 0.01 0.00 85 1021.7
20260502151549 65 342 1.0 6.0 0.00 0.01 0.00 85 1021.7
20260502151025 65 287 1.0 5.0 0.00 0.01 0.00 84 1021.8
20260502150524 65 295 0.0 3.0 0.00 0.01 0.00 84 1021.9
20260502130516 66 296 1.0 5.0 0.00 0.02 0.02 84 1022.6
20260502123514 66 315 0.0 5.0 0.00 0.02 0.02 84 1022.8
20260502123014 66 322 1.0 4.0 0.00 0.02 0.02 84 1022.8
20260502122514 66 134 0.0 4.0 0.00 0.02 0.02 84 1022.9
20260502122015 66 271 0.0 3.0 0.00 0.02 0.02 84 1023.0
20260502121516 66 246 1.0 5.0 0.00 0.02 0.02 84 1023.0
20260502121014 66 339 0.0 5.0 0.00 0.02 0.02 84 1023.1
20260502120514 66 237 0.0 6.0 0.00 0.02 0.02 84 1023.0
20260502115512 66 17 0.0 7.0 0.00 0.02 0.02 85 1023.1
20260502115012 66 269 1.0 7.0 0.00 0.02 0.02 85 1022.9
20260502114512 66 286 0.0 4.0 0.00 0.02 0.02 85 1022.9
20260502114013 66 287 0.0 4.0 0.00 0.02 0.02 84 1023.0
20260502113514 66 60 1.0 5.0 0.00 0.02 0.02 84 1022.9
20260502113012 66 270 2.0 6.0 0.00 0.02 0.02 84 1022.9
20260502112512 67 310 1.0 6.0 0.00 0.02 0.02 83 1023.0
20260502112011 67 355 1.0 4.0 0.00 0.02 0.02 83 1023.0
20260502111511 67 251 1.0 6.0 0.00 0.02 0.02 82 1022.9
20260502111011 67 317 1.0 6.0 0.00 0.02 0.02 82 1023.0
20260502110511 67 24 0.0 4.0 0.00 0.02 0.02 82 1023.1
20260502110012 67 279 0.0 5.0 0.00 0.02 0.02 82 1023.0
20260502105511 67 13 1.0 7.0 0.00 0.02 0.02 82 1023.0
20260502105010 67 313 1.0 7.0 0.00 0.02 0.02 82 1022.9
20260502104510 67 227 0.0 5.0 0.00 0.02 0.02 82 1022.9
20260502104010 67 23 1.0 5.0 0.00 0.02 0.02 81 1022.9
20260502103510 68 40 2.0 5.0 0.00 0.02 0.02 81 1023.0
20260502103009 68 321 2.0 4.0 0.00 0.02 0.02 81 1023.0
20260502102509 68 44 2.0 4.0 0.00 0.02 0.02 81 1022.8
20260502102009 68 340 1.0 5.0 0.00 0.02 0.02 81 1022.7
20260502101508 68 330 2.0 5.0 0.00 0.02 0.02 81 1022.6
20260502101008 68 196 1.0 5.0 0.00 0.02 0.02 81 1022.5
20260502100508 68 15 2.0 6.0 0.00 0.02 0.02 81 1022.5
20260502091506 69 311 2.0 9.0 0.00 0.02 0.02 78 1022.2
20260502091006 69 267 3.0 9.0 0.00 0.02 0.02 79 1022.2
20260502090511 69 355 2.0 7.0 0.00 0.02 0.02 79 1022.2
20260502071502 70 304 1.0 5.0 0.00 0.02 0.02 77 1021.7
20260502071002 70 324 1.0 7.0 0.00 0.02 0.02 76 1021.6
20260502070504 70 265 2.0 7.0 0.00 0.02 0.02 76 1021.6
20260502070002 70 355 1.0 9.0 0.00 0.02 0.02 76 1021.6
20260502065502 71 329 2.0 10.0 0.00 0.02 0.02 76 1021.6
20260502065002 71 273 3.0 10.0 0.00 0.02 0.02 76 1021.5
20260502064501 71 319 1.0 5.0 0.00 0.02 0.02 76 1021.5
20260502064002 71 228 1.0 7.0 0.00 0.02 0.02 76 1021.4
20260502063502 71 318 2.0 7.0 0.00 0.02 0.02 76 1021.4
20260502063002 72 325 1.0 5.0 0.00 0.02 0.02 75 1021.3
20260502062502 72 327 1.0 10.0 0.00 0.02 0.02 75 1021.3
20260502062001 72 198 1.0 10.0 0.00 0.02 0.02 74 1021.4
20260502061601 72 259 1.0 4.0 0.00 0.02 0.02 74 1021.4
20260502061100 72 118 1.0 10.0 0.00 0.02 0.02 73 1021.4
20260502060600 72 292 2.0 10.0 0.00 0.02 0.02 72 1021.4
20260502060100 73 82 2.0 9.0 0.00 0.02 0.02 71 1021.4
20260502060002 73 240 2.0 9.0 0.00 0.02 0.02 71 1021.3
20260502055559 73 310 2.0 8.0 0.00 0.02 0.02 71 1021.3
20260502055059 73 185 2.0 8.0 0.00 0.02 0.02 72 1021.3
20260502054610 73 232 1.0 6.0 0.00 0.02 0.02 72 1021.3
20260502054101 73 109 1.0 9.0 0.00 0.02 0.02 72 1021.4
20260502053559 73 43 2.0 9.0 0.00 0.02 0.02 72 1021.4
20260502053059 73 33 3.0 9.0 0.00 0.02 0.02 72 1021.3
20260502052559 73 44 2.0 8.0 0.00 0.02 0.02 72 1021.3
20260502052102 74 48 2.0 8.0 0.00 0.02 0.02 72 1021.3
20260502051557 74 252 2.0 8.0 0.00 0.02 0.02 72 1021.3
20260502051057 74 331 2.0 12.0 0.00 0.02 0.02 73 1021.4
20260502050557 74 82 2.0 12.0 0.00 0.02 0.02 73 1021.4
20260502050056 74 161 2.0 12.0 0.00 0.02 0.02 73 1021.5
20260502045558 74 61 3.0 12.0 0.00 0.02 0.02 73 1021.5
20260502045057 74 61 3.0 11.0 0.00 0.02 0.02 75 1021.5
20260502044558 74 126 2.0 11.0 0.00 0.02 0.02 74 1021.5
20260502044055 75 281 3.0 11.0 0.00 0.02 0.02 74 1021.6
20260502043556 75 331 2.0 12.0 0.00 0.02 0.02 73 1021.6
20260502043055 75 46 3.0 9.0 0.00 0.02 0.02 73 1021.5
20260502042556 74 80 3.0 12.0 0.00 0.02 0.02 72 1021.6
20260502042054 74 243 3.0 12.0 0.00 0.02 0.02 72 1021.6
20260502041601 74 223 2.0 9.0 0.00 0.02 0.02 74 1021.6
20260502041053 74 107 2.0 8.0 0.00 0.02 0.02 74 1021.7
20260502040555 74 123 1.0 7.0 0.00 0.02 0.02 74 1021.7
20260502040053 74 132 2.0 6.0 0.00 0.02 0.02 73 1021.6
20260502035552 75 47 1.0 7.0 0.00 0.02 0.02 72 1021.7
20260502035052 75 95 3.0 8.0 0.00 0.02 0.02 70 1021.7
20260502034552 76 55 3.0 8.0 0.00 0.02 0.02 67 1021.6
20260502034051 77 112 2.0 9.0 0.00 0.02 0.02 65 1021.8
20260502033549 77 90 2.0 9.0 0.00 0.02 0.02 65 1021.8
20260502033050 77 95 2.0 10.0 0.00 0.02 0.02 64 1021.8
20260502032548 76 300 3.0 10.0 0.00 0.02 0.02 64 1022.0
20260502032048 76 340 2.0 10.0 0.00 0.02 0.02 65 1021.9
20260502031550 76 132 2.0 11.0 0.00 0.02 0.02 65 1022.1
20260502031045 76 279 3.0 11.0 0.00 0.02 0.02 65 1022.0
20260502030546 76 302 5.0 12.0 0.00 0.02 0.02 66 1022.1
20260502030042 76 283 3.0 13.0 0.00 0.02 0.02 68 1022.1
20260502025540 75 300 5.0 13.0 0.00 0.02 0.02 69 1022.3
20260502025038 75 297 6.0 11.0 0.00 0.02 0.02 70 1022.4
20260502024539 75 275 4.0 11.0 0.00 0.02 0.02 71 1022.5
20260502024038 75 334 3.0 11.0 0.00 0.02 0.02 70 1022.6
20260502023535 75 322 2.0 9.0 0.00 0.02 0.02 71 1022.7
20260502023046 74 294 3.0 11.0 0.00 0.02 0.02 73 1022.8
20260502022533 73 303 3.0 11.0 0.00 0.02 0.02 73 1022.9
20260502022035 73 290 4.0 11.0 0.00 0.02 0.02 72 1022.9
20260502021531 73 201 1.0 11.0 0.00 0.02 0.02 74 1022.9
20260502021030 73 330 3.0 10.0 0.00 0.02 0.02 74 1023.0
20260502020536 73 276 2.0 7.0 0.00 0.02 0.02 76 1023.2
20260502020027 73 334 1.0 4.0 0.00 0.02 0.02 77 1023.3
20260502015527 72 38 1.0 6.0 0.00 0.02 0.02 79 1023.4
20260502015028 72 71 1.0 8.0 0.00 0.02 0.02 79 1023.6
20260502014523 72 279 1.0 8.0 0.00 0.02 0.02 78 1023.9
20260502014022 72 343 1.0 11.0 0.00 0.02 0.02 78 1023.9